Theta_e
315 315 315 315 316 315 316 318 320 322 320 321 322 319 316 319 322 319 320 320 316 327 343 348 345 343 348 353 355 351 349 356 356 354 355 348 341 341 340 339 343 345 347 346 344 345 342 335 331 329 324 325 333 336 335 334 331 328 327 330 331 332 333 333 333 335 337 338 339 338 337 337 339 341 341 340 339 337 334 336 339 339 339 339 339 337 336 338 337 337 337 336 336 336 334 334 334
314 315 315 316 316 316 318 318 321 323 319 317 317 320 319 320 322 319 320 319 319 331 350 353 351 355 353 350 350 350 349 349 348 349 348 343 341 341 338 340 343 345 347 345 344 345 342 335 331 329 325 325 333 338 336 334 332 330 330 332 334 335 335 336 336 337 338 339 340 339 338 339 339 340 340 339 338 338 336 337 338 337 338 338 338 338 338 338 338 339 338 337 337 337 336 336 336
314 315 317 319 317 318 322 318 320 321 319 315 313 318 316 317 318 317 318 319 319 322 343 354 355 356 353 357 355 353 351 345 345 345 345 343 343 342 340 340 343 346 346 344 344 344 341 335 331 329 325 326 332 337 336 334 333 331 333 336 334 335 336 337 338 338 338 338 339 339 339 340 341 341 341 339 339 339 338 338 338 337 337 337 338 338 339 338 338 338 338 338 337 337 336 336 337
314 315 317 320 320 323 327 322 324 323 319 316 312 315 316 316 316 316 318 319 320 316 334 356 357 350 354 364 355 354 353 345 345 344 345 343 342 344 343 343 345 346 345 345 344 343 341 335 331 329 326 326 332 336 335 334 334 332 334 337 335 336 336 337 339 338 338 337 337 338 339 339 341 341 341 341 341 339 337 338 338 337 336 336 336 338 339 338 338 338 338 337 337 337 337 336 336
315 316 316 320 323 325 326 321 323 319 315 317 313 315 320 319 318 318 320 320 320 319 330 353 360 350 352 356 350 357 356 346 345 343 344 344 342 343 343 345 346 346 346 345 343 343 341 336 332 330 327 328 333 335 334 335 335 335 334 335 335 334 335 336 337 338 339 338 337 337 337 338 339 340 340 341 340 340 339 339 338 338 337 336 336 338 338 338 338 338 338 337 337 337 336 335 334
315 316 318 320 320 319 321 321 323 318 314 318 315 318 320 319 319 318 320 319 322 332 340 353 357 353 355 351 349 353 349 348 347 344 344 344 343 342 344 345 346 346 345 345 344 343 340 335 332 330 329 330 334 334 334 335 336 336 333 333 334 332 333 334 335 337 339 338 338 338 337 337 338 339 339 339 339 340 340 339 338 336 335 336 337 338 338 338 338 338 338 337 336 335 334 333 331
314 319 321 321 319 318 323 325 324 322 319 319 319 320 317 317 318 318 320 319 323 338 350 355 352 357 359 352 353 350 344 347 346 344 344 344 344 343 345 345 345 345 345 345 343 342 339 334 332 331 330 332 333 333 335 335 337 338 335 334 332 332 332 334 335 337 339 338 338 339 338 338 338 338 337 337 338 339 340 339 338 335 333 333 334 337 338 338 337 337 336 335 334 332 332 331 330
315 319 321 324 322 318 322 324 321 320 320 318 319 319 318 319 318 318 319 318 320 325 345 354 352 362 358 351 358 352 343 345 344 344 345 344 345 344 345 345 345 345 344 344 343 342 339 335 334 332 330 332 333 334 336 336 339 340 338 336 333 332 333 336 337 336 338 338 338 339 339 339 338 338 337 336 337 338 338 337 338 335 333 333 333 335 335 335 334 333 333 332 332 331 331 330 330
313 315 317 322 320 317 320 319 316 316 318 317 315 317 318 317 316 317 315 317 319 323 350 354 352 365 357 350 356 349 343 344 344 344 344 344 345 345 345 344 344 344 344 343 342 342 339 335 335 334 331 332 334 337 338 339 340 340 339 337 334 333 335 337 336 335 336 337 338 338 339 339 339 338 338 337 337 337 336 336 336 334 333 334 333 333 331 330 330 330 331 331 331 331 330 330 331
314 314 315 321 319 317 319 316 315 315 315 315 314 314 314 313 314 314 313 316 314 326 355 353 351 360 354 351 353 347 345 344 344 344 344 345 344 345 344 344 343 343 343 342 342 341 339 337 336 334 332 334 337 339 339 340 341 340 339 336 334 333 335 336 335 334 335 336 337 337 338 338 338 338 337 336 336 336 335 336 335 333 333 334 333 331 329 328 329 329 330 330 331 330 329 329 332
318 316 318 324 321 317 317 315 316 315 314 314 314 315 314 314 313 314 314 315 318 336 354 356 354 353 352 353 350 345 343 343 344 344 344 344 344 344 343 344 343 342 343 342 342 341 339 338 336 335 334 337 339 340 340 340 341 340 338 333 331 331 331 333 333 334 335 337 336 336 337 337 338 337 336 335 334 334 334 334 334 333 333 334 333 331 329 328 329 329 330 330 330 329 328 329 332
319 317 322 327 323 319 318 318 317 317 316 315 317 317 316 314 313 315 312 312 335 356 356 358 354 350 355 355 349 343 342 342 343 343 343 344 344 343 343 343 343 343 342 342 342 341 340 338 337 337 337 338 339 340 340 340 341 339 335 330 326 325 326 328 331 335 336 336 336 335 336 336 336 335 334 334 334 333 333 333 334 334 333 333 332 331 329 328 329 329 329 329 329 328 327 329 332
321 319 323 321 320 322 319 318 318 320 319 316 317 316 314 312 313 316 316 323 349 360 353 353 351 351 356 353 348 342 340 342 341 343 342 343 343 343 343 342 343 343 342 342 342 340 339 337 338 340 339 340 340 341 340 340 340 337 332 326 324 323 325 327 331 334 334 334 334 335 336 335 334 333 333 333 333 333 333 333 334 334 333 333 333 331 329 328 329 329 329 329 328 328 327 328 331
320 320 324 317 316 321 317 317 317 317 316 315 315 314 313 311 316 325 334 348 353 352 350 349 348 355 357 352 349 343 340 341 341 342 342 343 343 342 342 342 342 342 342 342 342 341 339 338 339 341 340 341 341 341 341 340 340 336 329 326 325 326 329 332 333 333 333 334 334 335 335 334 334 333 333 333 333 332 332 333 334 334 333 333 333 333 330 328 328 329 329 329 328 328 327 328 331
315 319 326 318 315 317 314 314 315 315 314 315 313 312 314 310 325 342 348 354 352 347 349 348 346 355 356 353 352 345 341 342 342 342 342 342 341 342 342 342 342 342 343 342 342 341 339 339 341 341 342 341 342 342 341 341 340 334 328 326 326 330 334 336 336 335 334 334 334 335 335 335 335 335 334 333 333 333 332 334 335 334 333 331 330 331 330 328 328 329 329 329 328 328 328 328 330
314 321 323 317 317 316 313 313 313 315 315 316 313 311 314 309 330 351 347 347 351 349 351 350 348 350 352 352 349 343 342 342 342 341 341 341 341 342 342 342 342 342 342 342 342 341 340 341 342 342 342 342 342 341 341 341 339 333 327 326 328 333 337 337 338 337 336 335 336 336 336 337 337 336 335 334 334 334 334 334 335 333 333 331 329 328 326 326 327 327 328 328 328 327 327 328 330
314 321 321 317 317 315 315 315 314 316 315 316 313 310 313 310 322 344 347 347 350 352 353 351 348 349 350 349 345 342 343 343 341 341 341 341 341 341 342 342 342 342 342 342 342 341 341 342 343 343 343 342 341 341 340 340 337 331 327 329 333 337 338 338 339 338 337 337 338 337 336 338 338 336 335 334 334 334 334 334 333 332 332 331 328 323 321 323 323 325 326 327 327 326 327 328 329
315 320 320 317 315 315 316 317 316 314 314 313 312 311 312 313 312 327 349 354 351 354 352 348 348 347 346 345 343 343 343 343 341 341 340 341 341 341 342 342 342 343 343 343 342 342 342 343 343 343 343 341 341 341 340 340 335 328 329 335 338 338 338 338 339 339 339 339 339 338 337 338 337 335 334 333 333 334 333 332 331 330 328 326 324 320 319 320 320 322 323 325 326 326 326 328 329
318 318 316 316 315 315 315 316 314 311 312 312 312 311 311 314 309 322 352 357 353 357 353 349 350 347 345 343 342 344 343 342 341 340 341 341 341 341 341 341 342 342 342 342 342 341 342 343 343 342 342 341 341 340 340 339 332 329 334 338 339 338 339 338 338 339 339 339 339 338 338 338 336 334 333 332 333 332 330 330 328 327 325 322 321 320 319 318 319 320 321 324 325 325 327 328 329
318 318 317 317 314 313 313 312 312 311 312 311 312 311 312 313 310 328 355 356 354 357 353 351 352 350 347 344 343 344 343 342 341 340 341 340 341 340 341 341 341 341 341 341 341 341 341 343 342 341 341 340 340 340 339 336 330 333 338 339 339 339 338 337 338 338 338 339 338 338 338 337 335 334 333 333 333 328 325 326 325 324 323 323 323 321 319 319 319 320 321 323 325 325 327 328 328
316 318 319 316 312 313 313 311 313 313 311 311 311 312 313 311 318 345 356 352 356 355 350 349 351 351 347 344 343 343 343 342 340 340 340 340 340 340 340 341 341 341 340 341 343 341 340 341 341 340 341 340 339 339 339 334 331 336 340 339 338 337 337 337 337 337 336 338 338 338 338 336 334 334 334 334 331 326 324 325 324 324 325 325 325 323 321 321 321 322 322 324 325 326 327 328 328
315 317 317 315 312 313 313 312 314 313 311 311 312 312 313 311 321 352 358 349 356 354 348 347 347 348 345 343 343 343 343 341 341 340 340 340 340 340 341 341 340 341 340 342 343 341 340 340 340 340 340 339 339 339 337 333 333 338 340 339 338 337 336 335 336 335 334 335 336 336 336 334 334 334 334 333 331 328 326 327 326 326 327 327 327 326 324 324 325 326 326 327 327 327 328 328 328
316 319 318 316 314 313 312 313 314 313 312 311 313 311 311 311 311 337 357 351 349 350 349 347 345 345 344 343 343 345 344 341 340 340 340 340 339 340 341 341 341 340 341 343 343 342 340 339 339 339 339 339 339 338 335 334 337 338 339 338 336 335 334 334 334 333 333 334 334 333 333 333 333 334 333 332 331 330 328 328 328 327 328 329 330 329 328 327 328 329 329 329 329 328 328 328 328
317 319 318 317 316 314 314 314 314 312 311 311 312 309 310 312 308 327 353 351 348 350 350 346 345 344 344 344 343 344 343 341 341 340 339 339 336 337 338 339 340 340 341 343 342 342 340 338 339 339 338 339 338 336 334 336 339 338 337 337 335 334 333 333 331 331 332 333 332 331 331 331 332 333 332 331 330 329 328 327 328 328 329 330 329 330 330 328 328 329 330 330 329 328 328 328 328
317 317 316 316 316 316 315 314 314 313 312 310 310 311 311 310 312 327 343 348 351 352 348 346 344 345 345 344 344 343 342 342 341 340 339 337 335 336 337 337 338 340 340 342 341 341 340 337 337 338 337 339 336 334 335 338 338 337 336 335 334 333 332 331 330 329 330 332 332 331 330 331 333 334 332 329 328 326 325 327 329 330 330 330 329 329 329 329 329 328 329 329 328 328 328 328 328
319 318 316 316 316 315 314 313 314 313 311 310 309 312 312 310 318 329 338 348 351 349 347 347 345 346 346 344 344 343 343 343 342 341 338 336 335 335 337 337 338 340 339 342 341 339 340 336 335 338 338 338 335 334 337 337 337 336 335 334 333 332 330 329 329 328 329 331 331 330 330 331 333 334 332 329 327 324 324 328 331 331 330 329 329 329 329 330 330 329 329 329 328 327 327 328 329
318 317 316 316 314 312 312 311 313 311 309 311 310 312 311 311 319 325 339 347 347 349 348 347 346 347 347 345 345 344 344 344 342 341 338 335 335 334 336 337 338 339 339 341 340 338 340 338 336 337 337 336 334 333 336 336 335 334 334 334 332 330 329 328 328 328 328 330 331 331 331 330 331 333 332 331 329 326 326 329 331 331 330 329 329 329 328 329 329 329 329 329 328 328 327 329 329
313 313 312 312 312 311 311 310 312 310 310 313 310 312 311 310 313 316 341 348 346 349 348 346 348 348 347 346 346 345 345 344 342 340 338 335 335 334 335 337 338 339 338 339 340 338 338 337 336 336 336 335 334 333 335 334 333 333 333 333 331 328 327 328 328 328 328 330 332 331 332 331 331 332 333 332 331 329 329 330 331 331 331 330 329 328 328 328 329 329 329 328 328 327 327 329 330
310 311 310 313 312 311 312 312 312 310 311 315 312 312 312 314 312 314 341 348 346 348 348 347 347 347 348 347 346 347 346 343 341 340 339 336 334 334 334 336 338 338 338 338 338 336 335 336 335 335 334 334 334 333 334 333 332 332 333 332 330 328 328 329 329 329 329 331 333 333 333 333 332 333 333 333 333 331 331 331 332 331 331 331 330 329 329 329 329 329 329 328 328 327 326 328 330
311 311 309 312 313 314 312 310 310 309 311 313 312 312 316 324 314 315 338 349 347 348 348 348 347 347 347 346 347 346 345 343 341 339 339 337 334 334 335 336 338 338 337 338 338 335 334 335 334 334 333 333 334 333 333 332 332 333 333 332 330 328 328 330 331 331 331 332 333 334 333 332 333 333 333 333 333 332 331 331 332 331 331 331 331 330 329 329 329 329 328 328 328 327 326 327 329
312 311 311 311 311 316 315 311 312 310 312 312 311 312 316 323 313 317 341 349 347 350 348 347 347 346 346 346 346 346 345 343 341 339 337 336 334 333 334 335 336 337 336 337 337 335 334 335 335 334 332 332 333 333 333 332 332 333 333 332 330 329 329 330 332 333 333 333 334 334 332 331 332 333 332 332 333 333 332 331 332 331 332 332 331 330 330 330 329 328 328 328 328 327 326 327 327
316 310 314 316 311 315 316 312 313 312 312 311 310 313 314 318 312 318 343 349 346 349 346 346 347 346 346 345 345 345 344 343 342 339 334 332 333 333 333 333 333 334 334 336 336 336 335 335 335 334 333 333 333 333 332 332 332 333 333 332 331 330 330 331 333 333 334 334 334 334 332 330 331 332 331 332 332 333 332 332 332 333 333 333 331 330 330 330 330 329 329 328 328 327 327 327 327
321 313 314 320 313 312 314 312 313 311 311 312 311 313 313 317 312 311 335 350 346 348 346 346 346 346 346 345 345 344 343 344 341 335 332 331 332 333 332 332 333 333 333 334 335 336 336 336 336 335 334 334 334 333 333 332 332 333 334 333 331 330 330 331 332 333 333 334 334 334 332 331 331 331 331 332 332 332 333 332 333 333 333 333 332 330 330 331 331 330 329 328 328 327 327 327 327
323 317 314 319 316 312 313 312 312 310 311 313 311 313 312 317 315 308 327 348 347 347 347 345 347 346 345 345 344 343 344 342 336 332 331 332 332 332 331 333 334 334 333 334 335 336 335 336 336 335 334 334 334 334 333 333 333 334 334 333 332 331 331 332 332 333 334 333 333 333 332 332 332 331 331 332 333 332 333 332 333 333 333 332 332 331 330 331 331 331 330 329 328 327 327 326 327
319 316 314 319 317 313 313 313 313 311 311 313 311 314 314 315 316 309 323 345 348 347 347 345 346 346 345 346 344 344 344 339 332 331 332 332 332 332 333 335 335 334 335 334 334 336 336 336 337 336 334 334 334 335 334 334 333 334 334 334 333 332 333 333 333 333 334 333 332 332 332 332 332 332 332 333 333 332 332 332 332 332 333 332 332 331 330 331 332 331 330 329 328 327 327 327 327
315 313 314 316 314 312 311 311 313 312 310 313 312 314 316 315 316 311 318 339 348 347 346 346 346 346 346 346 345 345 343 338 332 331 332 332 331 332 335 335 333 330 330 334 335 336 336 337 338 337 335 334 334 335 335 334 334 334 335 334 333 333 334 333 333 334 334 333 332 332 333 332 333 333 333 333 333 332 332 331 332 332 332 332 331 331 330 331 331 331 330 328 328 328 328 327 327
311 312 313 314 312 311 310 310 313 312 311 316 317 315 317 316 317 315 315 334 347 347 346 347 346 345 346 346 347 344 341 336 332 331 332 333 333 332 333 335 334 334 331 333 336 336 337 337 337 337 336 334 334 335 335 335 334 334 334 333 333 333 334 333 333 334 333 332 333 333 333 333 333 333 333 333 333 332 332 331 332 332 332 331 331 331 330 330 331 331 330 328 328 328 328 327 327
311 312 313 313 312 311 309 309 311 311 312 319 321 316 317 316 316 316 317 332 345 346 346 346 345 345 344 345 346 341 337 334 332 332 332 333 334 332 332 334 333 333 334 334 335 337 337 337 337 337 336 334 335 335 335 335 334 334 333 333 333 333 333 333 333 333 333 333 334 334 334 333 333 333 332 332 332 332 332 332 332 332 331 331 332 331 330 330 330 330 329 328 328 328 328 328 328
313 313 313 314 313 312 312 312 313 312 312 320 322 315 315 316 315 315 318 329 339 343 345 344 344 345 343 344 345 340 336 334 333 333 333 332 333 332 331 333 333 333 334 334 335 337 337 337 336 336 336 335 335 335 335 336 335 334 333 333 333 333 333 332 332 333 334 334 334 334 334 334 333 333 333 332 332 332 332 332 332 332 331 331 331 331 329 329 330 330 329 328 327 327 328 328 328
316 314 313 314 312 311 315 316 318 316 314 317 317 315 317 316 317 317 317 320 326 333 340 341 341 343 343 343 343 339 337 336 334 334 334 332 332 332 332 332 333 334 334 335 336 337 337 337 337 336 336 335 335 335 336 336 335 334 333 333 333 333 332 333 333 334 334 334 334 334 334 333 333 333 332 332 332 333 332 331 331 331 331 330 330 330 328 327 329 329 329 329 327 328 328 328 328
321 318 314 313 312 311 314 314 316 319 319 318 315 319 325 322 321 322 320 317 315 319 333 342 343 342 342 341 340 339 337 335 334 334 334 333 331 331 332 332 333 334 334 335 336 337 337 336 337 336 336 336 335 335 336 336 335 334 333 333 333 333 333 333 333 334 333 333 333 333 333 332 332 332 332 332 332 332 331 330 330 330 330 330 330 330 328 327 328 329 328 328 328 327 328 328 328
321 321 316 313 312 313 313 311 313 319 322 319 314 321 332 329 323 322 321 319 313 315 331 343 344 342 340 340 339 337 335 334 333 333 334 333 330 330 331 331 332 333 334 336 337 336 336 336 337 336 336 336 335 335 336 336 335 334 333 332 332 333 333 333 333 333 333 332 332 332 332 332 332 332 331 331 331 331 331 331 330 330 330 329 329 329 328 327 328 329 328 328 328 327 327 328 329
316 320 319 314 311 313 313 311 313 319 322 318 315 319 324 323 320 319 320 326 325 323 334 341 341 341 339 339 339 337 334 333 333 333 333 332 330 330 331 331 332 333 334 336 337 336 336 336 336 336 336 335 334 335 336 336 335 334 333 332 333 332 332 332 332 332 332 331 330 330 330 331 330 329 329 330 330 330 330 330 330 330 330 329 329 329 328 328 328 328 328 328 328 327 327 328 329
316 320 320 315 313 313 313 312 314 320 322 322 324 319 316 320 321 319 322 334 339 333 335 340 341 340 339 338 337 336 333 332 333 332 332 331 331 330 330 331 332 332 334 335 336 336 336 336 336 336 335 334 334 335 336 335 334 333 332 332 332 332 331 332 332 332 331 330 330 330 330 329 328 326 326 327 328 329 329 329 330 330 330 330 330 329 329 329 328 328 328 328 329 328 327 327 328
317 321 318 314 313 313 313 314 318 320 317 320 326 319 313 324 330 327 329 338 341 338 336 339 342 340 338 337 336 335 333 332 332 331 331 331 330 330 330 331 331 332 334 335 335 336 336 336 336 335 335 334 334 335 335 335 334 333 332 332 332 332 331 332 332 332 331 330 329 330 330 329 326 325 326 326 326 327 327 328 328 329 329 330 330 329 329 329 329 329 329 329 330 330 329 328 328
316 318 315 313 316 317 316 317 318 317 316 317 324 320 313 323 336 338 339 338 334 336 337 338 342 340 338 336 334 334 333 331 331 330 330 330 329 329 330 330 331 331 333 334 335 336 336 335 335 335 334 334 334 335 335 335 334 332 332 332 331 331 331 331 331 331 331 330 328 328 329 329 327 325 326 326 326 326 326 326 326 327 328 329 329 330 330 330 329 329 329 330 330 330 330 329 328
312 313 313 314 319 321 322 325 320 315 318 319 320 323 316 319 334 338 337 334 327 329 335 339 342 340 338 336 334 333 332 332 332 331 330 329 328 328 329 329 330 331 332 334 335 336 336 335 334 334 334 333 335 335 336 336 333 332 331 331 331 330 330 330 331 331 330 328 327 327 328 328 327 326 326 326 326 326 325 325 325 325 326 327 328 329 329 330 329 329 329 329 330 330 330 330 329
310 315 317 316 320 320 321 328 324 315 321 323 320 321 315 317 332 333 329 330 327 326 330 336 341 341 338 336 334 333 333 333 332 332 331 330 329 328 328 329 329 330 332 333 335 335 335 335 334 334 334 334 335 335 336 335 332 332 331 330 330 330 330 330 330 330 328 327 326 326 326 327 326 326 326 326 325 325 325 325 325 325 325 326 327 328 328 329 329 330 329 329 329 329 330 330 329
309 316 318 316 319 318 318 324 322 319 323 322 319 318 315 320 330 331 328 329 329 328 328 332 339 339 338 336 335 334 332 333 333 332 332 330 329 327 327 329 329 330 332 333 335 335 334 334 334 334 333 333 335 335 334 333 332 332 331 330 329 330 330 331 330 329 327 326 326 326 325 326 326 325 325 326 325 325 325 324 324 325 325 326 326 326 327 328 329 329 329 329 329 329 329 329 329
310 313 316 317 319 317 321 323 319 319 321 316 315 317 318 326 329 328 329 330 332 331 328 331 336 338 338 336 335 334 332 332 333 332 331 330 329 327 327 329 330 331 332 333 334 334 334 333 332 332 332 332 333 333 333 332 331 331 330 329 329 330 330 329 328 328 326 326 325 325 325 325 325 325 325 325 325 325 324 323 323 325 325 325 324 323 324 326 328 328 328 328 328 328 329 329 328
309 312 314 317 323 322 323 324 319 318 320 319 318 316 320 332 331 327 331 332 334 335 331 333 337 336 337 335 334 335 333 333 333 332 331 330 328 327 328 329 330 331 332 333 334 334 334 332 330 331 331 331 332 332 332 331 331 331 330 329 330 330 328 327 328 328 326 326 325 324 325 325 325 324 324 324 324 324 324 323 323 324 324 324 323 322 322 325 327 328 328 328 328 328 329 329 328
311 312 313 313 321 325 321 321 321 322 322 322 323 321 324 332 330 326 331 334 334 336 334 335 337 335 336 336 335 335 333 333 332 330 329 328 327 327 329 330 330 332 333 333 334 333 334 333 331 331 331 331 331 331 331 331 330 330 329 329 329 328 326 327 328 327 327 327 325 324 325 324 324 323 323 323 322 323 324 323 323 323 323 324 323 322 322 325 327 328 329 328 328 328 328 327 327
315 312 314 314 315 320 321 318 318 320 320 321 325 330 332 334 332 327 331 336 335 335 336 336 336 335 334 333 332 332 331 330 329 328 327 328 328 328 329 330 331 332 332 332 333 333 333 333 332 331 331 331 331 330 330 329 328 327 327 327 327 326 325 326 327 327 327 326 325 325 324 323 323 322 322 322 321 323 323 323 323 322 322 324 323 321 322 324 326 327 328 328 327 327 326 326 326
317 314 316 314 311 319 325 325 324 321 320 324 327 333 335 336 337 331 330 335 336 334 335 335 334 333 332 330 329 329 329 328 328 327 328 328 329 328 329 330 331 331 332 331 332 333 333 332 332 332 331 331 330 329 328 327 326 326 326 326 325 324 324 324 325 326 325 324 325 324 323 323 323 322 322 321 320 322 323 323 322 321 322 323 323 321 321 323 325 326 326 326 326 326 326 325 325
317 319 317 315 317 323 321 322 326 321 320 328 329 328 331 336 339 335 332 334 334 332 332 332 331 330 330 329 328 328 328 328 327 328 329 329 328 328 329 329 330 331 331 331 331 332 332 332 331 331 330 330 328 326 326 326 326 326 326 325 324 324 323 324 325 324 323 324 324 324 323 323 323 322 322 321 321 322 323 323 322 321 321 323 323 321 320 322 325 325 326 326 325 325 324 324 324
311 315 314 317 326 327 320 320 324 321 323 331 331 328 333 338 335 332 332 332 332 332 332 330 330 330 329 328 328 328 328 328 327 329 330 329 327 328 328 329 329 329 330 331 331 331 331 329 328 327 327 326 325 324 325 326 326 327 326 325 323 323 323 323 323 323 323 324 324 324 324 323 323 323 322 321 322 322 323 323 322 320 321 323 323 320 319 322 324 324 324 324 322 319 318 320 322
312 315 315 319 323 321 320 319 319 322 328 331 330 333 338 336 327 327 329 329 331 332 331 329 328 329 329 328 328 327 327 327 326 327 328 327 327 327 327 328 329 329 330 330 330 329 329 328 326 326 326 326 325 325 325 326 326 327 326 324 322 322 323 322 322 322 323 323 323 324 324 323 323 322 322 321 321 322 322 321 321 319 320 323 321 319 318 319 322 322 321 319 317 314 314 316 317
321 325 325 326 325 321 322 321 319 323 328 329 332 339 341 330 324 326 328 328 329 330 329 328 327 328 328 327 327 326 325 326 325 325 326 326 326 326 326 328 329 329 329 329 329 328 328 328 327 327 327 327 326 326 326 325 326 327 327 325 323 323 323 322 321 322 322 322 322 323 323 323 323 322 322 321 321 321 321 320 319 319 319 320 319 318 317 317 318 320 320 318 317 315 314 314 316
Wind_Speed
6 6 5 3 3 2 1 3 2 2 2 0 3 1 4 5 2 3 5 3 3 3 2 3 1 1 1 2 7 6 3 2 4 4 3 2 10 21 20 23 30 29 27 26 25 25 24 26 25 24 23 25 26 24 24 23 22 22 22 23 24 24 25 23 23 24 23 23 23 24 24 25 25 25 25 24 23 22 23 23 22 21 21 21 20 20 21 20 20 20 20 20 19 20 21 20 19
6 7 5 3 3 2 1 3 3 3 3 2 4 4 4 2 2 5 5 3 3 4 3 2 2 4 3 4 7 5 4 2 2 3 1 7 15 16 19 27 31 28 27 26 26 25 25 26 25 25 23 25 26 24 24 23 22 22 22 23 23 24 24 23 23 24 23 23 23 24 24 23 23 23 24 23 22 22 23 24 23 22 22 21 21 21 21 20 19 19 19 19 19 19 19 18 17
8 7 4 3 2 3 1 3 2 1 3 3 5 4 2 3 5 3 4 6 6 6 5 4 2 2 2 3 2 2 1 1 3 2 3 11 12 14 22 28 29 27 27 26 26 26 26 26 26 25 23 24 25 25 24 23 23 22 22 22 23 24 24 24 24 24 23 22 22 21 22 21 21 22 23 22 22 22 22 22 21 21 21 21 21 21 21 19 18 19 19 19 18 18 18 16 15
9 7 3 2 2 4 3 3 2 4 2 4 4 5 3 4 5 2 5 7 6 7 4 1 3 2 2 3 1 2 2 2 4 3 4 9 10 18 26 27 27 26 27 26 26 26 26 26 26 25 23 24 24 24 25 24 23 22 23 22 23 24 24 25 24 24 23 22 22 22 20 20 21 22 23 23 23 22 20 20 20 20 20 20 21 21 20 19 18 18 18 18 18 18 17 16 14
9 5 2 2 3 1 3 2 2 3 4 4 2 5 4 5 4 4 7 6 7 8 5 3 1 3 3 3 1 1 1 3 3 4 5 8 16 24 26 26 26 25 26 25 25 26 26 26 26 24 23 23 23 24 24 24 23 23 22 22 23 23 24 24 24 23 22 21 22 22 21 20 21 21 22 23 23 21 20 20 20 19 19 20 20 19 19 19 18 18 18 18 17 17 16 15 14
7 5 3 4 2 1 3 1 2 3 6 4 3 6 4 5 4 6 8 8 8 6 3 3 2 0 3 2 1 2 0 2 3 4 7 13 22 26 26 27 26 25 24 24 25 26 27 26 25 24 23 23 23 23 24 23 23 23 22 22 22 22 23 23 22 22 21 20 21 22 22 20 20 20 21 22 22 21 20 20 20 19 19 20 20 18 19 19 18 18 17 17 17 16 15 15 12
6 3 3 4 2 1 4 2 4 4 5 5 4 6 7 7 4 7 8 7 6 2 1 3 5 4 2 2 1 2 5 3 4 6 12 19 25 26 26 26 25 25 23 24 25 26 27 26 26 24 23 23 23 23 23 22 22 22 21 21 21 21 21 20 20 20 20 19 20 21 21 20 20 20 20 21 21 21 20 19 19 17 17 19 19 18 18 18 17 17 17 17 17 16 15 13 11
5 2 1 4 2 2 3 2 4 3 5 5 5 7 10 9 5 7 6 4 4 2 1 3 5 5 0 1 0 4 9 6 7 12 20 24 26 26 26 26 25 24 23 24 25 26 26 26 25 24 24 24 23 23 22 21 21 20 20 20 20 20 20 19 18 18 19 19 20 20 20 20 20 19 19 19 20 20 19 19 18 16 16 17 18 18 18 17 17 17 17 17 16 15 13 12 11
3 2 1 3 2 1 1 3 4 3 5 6 6 8 10 9 6 6 7 6 4 3 2 5 4 4 3 2 0 3 7 9 15 19 24 26 26 27 26 25 25 24 23 24 26 26 25 25 25 24 24 24 23 22 21 20 20 20 20 19 19 20 19 18 18 18 18 19 19 19 19 20 20 19 18 18 18 18 18 17 17 16 16 16 16 17 17 17 17 17 17 17 15 14 13 12 12
3 2 2 2 3 0 4 3 3 3 5 5 7 11 10 9 7 7 7 7 6 3 3 5 4 5 6 3 1 3 4 14 21 22 24 26 26 26 25 23 25 25 25 25 26 26 26 25 24 24 24 23 23 22 21 21 20 19 19 19 19 20 19 18 18 17 17 18 18 18 18 19 19 18 17 17 16 16 15 15 15 15 15 14 15 16 16 17 17 17 17 16 14 13 12 12 13
3 3 2 3 3 1 4 4 4 4 6 5 8 10 7 7 7 7 5 6 6 4 5 4 5 6 6 4 2 2 9 16 21 23 23 25 25 26 25 23 23 25 26 27 27 26 26 25 24 24 24 23 23 22 22 21 20 19 18 18 19 19 19 19 18 17 17 17 17 17 17 17 17 16 15 15 14 14 14 14 13 13 13 14 14 15 15 16 16 17 17 15 13 12 12 13 14
2 2 4 4 2 3 4 3 5 5 7 5 7 6 2 4 6 9 5 5 4 6 5 3 6 6 5 3 2 5 11 13 17 22 23 23 24 24 25 24 23 24 26 27 26 26 26 25 24 24 24 24 23 22 22 21 20 18 18 18 19 19 19 19 18 17 17 16 15 16 16 16 15 14 14 13 13 13 13 13 13 12 12 14 15 15 16 16 16 17 16 14 12 12 12 13 14
3 2 5 2 3 3 3 2 4 5 6 4 5 5 5 6 7 9 5 4 5 7 4 5 10 5 4 3 3 5 8 10 17 21 23 23 22 23 25 25 24 24 25 26 26 26 27 26 25 24 24 23 23 22 21 21 19 18 18 19 19 19 19 18 17 16 16 16 15 15 15 14 13 13 13 13 12 12 12 12 12 12 12 13 14 14 15 17 17 17 16 13 12 11 12 13 13
3 3 4 2 1 2 2 2 3 2 4 5 2 5 6 5 7 6 3 4 3 5 3 6 9 6 4 4 4 4 6 13 18 21 22 22 22 23 24 25 25 25 25 25 27 27 27 26 25 24 23 23 23 22 21 20 18 19 19 18 19 19 18 17 16 16 16 15 15 15 14 14 13 13 12 12 11 11 12 12 12 12 12 12 12 13 14 16 17 17 16 13 11 10 11 12 13
3 2 4 2 1 2 2 2 2 2 4 4 0 5 7 5 5 5 5 3 1 2 4 5 4 4 5 6 5 6 11 18 20 21 22 21 20 21 22 24 24 24 25 25 26 27 27 26 25 24 24 24 23 22 21 20 18 19 19 18 18 18 17 16 16 16 15 15 15 15 15 14 14 13 12 12 12 12 12 12 12 12 11 11 12 12 13 15 16 17 16 14 12 10 10 12 12
3 3 4 1 2 2 3 3 3 2 5 5 2 5 9 8 4 3 3 0 2 2 3 3 1 2 6 6 7 13 19 22 22 22 22 20 19 20 21 23 24 24 25 26 26 26 26 26 25 24 25 25 24 23 22 20 18 19 19 18 17 16 16 15 15 15 15 15 15 15 15 15 14 14 13 12 12 11 12 12 12 11 10 10 10 11 11 13 14 15 15 14 12 10 10 11 12
3 4 4 0 3 4 3 4 4 3 5 5 5 8 8 10 5 2 2 5 3 2 4 2 3 2 3 6 16 24 25 25 24 24 22 21 20 19 19 21 23 24 24 24 25 25 26 25 25 25 25 25 23 23 21 19 19 19 19 18 17 16 15 15 15 15 15 15 15 16 16 15 14 14 13 13 12 12 11 11 11 11 11 10 9 10 11 11 12 12 13 14 12 11 10 10 12
3 3 3 2 4 4 5 6 5 3 5 7 8 8 6 8 8 3 3 6 4 3 5 4 5 6 6 14 26 27 25 26 26 24 21 20 19 17 17 21 24 24 24 23 24 25 25 24 24 25 25 24 23 22 21 19 19 20 20 18 17 16 15 15 15 16 16 16 15 16 15 15 14 14 13 13 13 12 12 11 10 11 11 10 9 9 9 10 10 11 12 13 13 12 10 10 12
2 3 2 4 5 4 5 5 3 2 5 9 9 6 5 7 5 3 0 1 4 3 3 5 7 8 10 17 25 25 24 25 24 23 20 19 18 17 16 20 23 23 23 23 23 23 24 24 24 25 25 24 23 22 21 20 20 20 19 18 17 17 16 16 16 16 17 16 16 16 15 15 15 13 12 13 13 12 12 12 11 12 11 11 9 8 8 8 9 9 10 12 13 13 11 11 12
2 4 2 6 5 4 4 4 5 6 6 8 9 5 6 8 5 2 1 2 1 2 3 5 8 10 11 14 20 22 22 22 22 22 20 20 20 19 18 20 23 24 24 24 23 22 23 24 24 25 25 24 24 23 22 21 21 21 20 19 18 18 18 18 17 17 16 16 16 16 15 15 14 13 12 12 12 13 13 13 13 12 11 10 8 8 8 8 8 8 9 10 12 13 11 11 12
2 3 5 5 3 3 5 5 6 7 5 5 7 8 8 8 3 1 3 3 3 6 7 6 9 14 15 15 17 18 18 18 19 20 19 19 19 18 17 19 21 23 24 23 23 23 24 24 25 25 24 24 24 24 23 22 22 21 20 19 19 19 18 18 17 16 16 15 15 16 16 15 14 14 13 12 12 13 13 13 12 11 10 9 7 6 7 8 8 9 9 9 11 11 11 10 11
2 5 7 4 1 3 5 5 6 7 4 5 7 7 7 6 4 0 5 5 5 5 7 7 9 16 17 17 17 14 14 15 16 17 17 18 18 17 17 20 21 22 24 24 25 25 25 25 26 25 24 25 25 25 24 23 23 22 21 21 20 19 18 18 17 16 15 14 16 16 16 15 14 13 12 11 11 12 12 12 11 10 9 8 7 6 6 7 8 9 9 9 9 9 9 9 10
2 6 4 3 4 4 5 5 8 7 4 6 6 3 4 5 7 4 6 8 7 3 4 8 9 13 15 16 17 14 14 15 15 15 17 16 11 9 13 20 23 24 23 23 26 26 25 26 26 26 25 26 25 24 25 24 23 23 22 21 20 18 18 17 15 14 14 14 15 14 15 14 13 13 11 10 10 10 11 11 11 10 9 8 7 5 6 6 7 8 8 8 8 7 6 7 8
4 5 3 3 5 6 7 7 8 7 5 8 5 4 5 5 6 2 5 9 5 2 5 11 12 12 13 14 15 14 14 14 14 16 17 14 12 7 7 11 19 23 21 22 26 25 26 28 27 27 27 26 25 24 25 24 23 23 21 19 18 17 16 15 14 13 13 14 13 13 13 13 12 12 10 9 9 10 10 11 11 10 9 7 6 5 5 5 6 6 7 7 7 6 5 6 8
6 6 3 3 5 6 7 6 9 9 7 7 3 6 8 6 4 2 6 8 1 5 7 11 14 14 13 13 14 12 12 12 14 18 15 16 18 17 14 11 14 21 21 22 28 25 25 30 28 27 27 25 25 25 25 24 23 22 20 19 18 16 15 14 13 13 13 14 13 13 13 12 11 10 9 8 8 9 9 9 10 9 7 6 5 5 4 5 5 5 6 6 6 5 5 7 10
6 6 4 4 5 6 5 6 9 8 6 2 3 10 8 3 3 3 7 3 3 7 10 10 13 16 14 12 13 13 13 14 16 16 16 20 22 20 23 21 16 21 22 22 28 27 24 29 28 26 25 23 25 26 26 25 23 22 20 18 17 15 15 14 13 13 13 13 14 14 12 10 9 8 8 7 7 7 8 8 8 7 6 5 5 4 4 5 5 5 5 5 5 5 6 8 12
4 4 5 6 7 7 4 5 8 6 5 3 5 11 6 0 2 4 6 3 6 8 11 11 13 14 14 12 11 12 14 16 17 16 15 19 21 21 26 28 24 23 23 22 26 28 25 28 26 23 22 22 26 27 26 25 22 21 19 17 16 15 14 14 13 13 12 13 13 13 12 9 7 7 7 7 7 6 7 7 6 6 4 4 4 4 4 4 5 5 6 6 5 5 6 7 10
3 3 5 7 5 6 4 6 8 3 5 5 6 8 6 1 3 6 5 6 7 10 13 14 13 11 11 11 10 9 11 14 18 17 15 18 22 25 26 29 29 26 26 26 26 29 27 26 24 21 21 22 26 27 26 25 22 20 18 16 15 14 14 13 13 13 12 12 11 11 10 8 7 7 8 7 6 6 6 6 5 4 3 2 4 3 3 4 5 6 6 7 6 6 6 7 9
4 3 3 7 6 6 5 5 5 2 4 4 6 5 8 2 6 7 4 8 7 9 13 13 11 9 9 10 9 8 9 12 16 17 19 24 23 26 26 25 28 27 28 26 25 29 27 25 24 20 20 22 26 27 26 24 21 20 18 16 14 14 14 14 14 13 12 13 11 9 8 8 8 7 8 7 6 6 5 5 4 3 4 3 3 2 2 4 5 6 7 8 7 7 6 7 8
4 1 1 5 7 6 6 3 2 1 4 4 6 3 7 7 8 7 4 10 9 9 12 12 9 6 7 8 7 8 9 11 15 19 21 20 16 20 23 23 29 29 28 27 25 27 26 24 22 19 20 22 26 26 25 23 21 20 17 15 14 13 14 14 13 13 12 12 10 8 6 7 8 7 7 7 6 6 5 5 4 4 6 4 3 2 2 4 5 5 7 8 8 8 7 7 8
2 2 1 3 2 5 8 4 1 1 3 4 6 3 6 10 9 4 6 9 11 11 12 12 10 7 7 8 8 9 10 11 16 17 11 5 7 10 9 9 15 17 17 19 21 22 21 20 20 19 21 22 25 25 23 22 20 19 17 16 15 14 14 14 13 12 11 10 8 6 6 7 8 7 7 7 7 6 5 5 6 7 7 5 4 3 2 4 5 6 7 8 8 8 7 8 8
2 1 3 3 1 4 10 6 0 1 5 3 5 2 5 9 7 3 6 7 9 10 11 12 12 10 8 7 9 10 10 10 12 6 11 20 25 22 14 14 11 8 5 6 12 18 18 18 19 20 21 23 24 23 21 20 19 18 17 16 15 15 14 13 12 10 9 8 8 7 6 7 8 8 8 8 8 8 7 6 7 8 7 6 4 3 3 4 5 6 6 7 7 8 8 8 8
3 1 3 3 1 3 5 5 3 1 3 4 3 2 4 7 5 2 5 7 7 8 10 12 12 12 11 8 8 10 9 5 3 10 23 28 27 23 15 7 6 5 6 5 9 16 17 16 20 21 21 23 23 23 20 19 18 17 17 16 15 15 13 11 10 9 8 7 8 8 7 8 8 8 8 8 8 9 8 8 9 9 9 7 6 5 4 4 5 5 6 6 5 6 8 9 9
3 2 1 3 3 2 2 4 6 5 4 5 4 1 5 10 6 2 5 8 7 8 10 12 11 11 10 9 9 9 7 5 7 14 25 28 27 25 20 15 10 12 16 16 14 17 20 18 21 22 22 23 22 22 20 19 18 16 16 15 15 14 12 10 10 8 7 7 8 8 8 8 8 8 8 9 8 8 8 8 8 8 8 8 7 6 5 5 5 5 6 6 5 6 7 8 10
2 1 0 3 3 3 2 3 5 6 6 5 6 4 7 11 8 3 6 8 8 10 10 11 11 11 10 10 10 7 5 8 9 16 24 26 29 29 28 25 20 17 20 25 23 24 27 23 22 23 22 23 22 21 20 19 18 16 15 14 14 13 12 10 10 9 7 7 7 8 8 8 8 8 8 8 8 7 7 7 7 6 7 8 8 6 5 6 7 6 6 6 6 6 7 9 12
6 4 3 3 4 5 5 4 5 3 5 6 6 6 7 9 9 5 6 8 9 10 8 8 9 9 9 8 8 6 6 9 11 18 24 22 25 30 32 33 33 29 27 33 34 33 34 30 26 25 23 23 22 21 20 19 18 17 15 13 13 13 12 11 10 9 7 7 8 9 8 9 9 8 8 8 7 7 7 7 7 7 7 8 8 7 7 8 8 8 7 7 8 8 8 10 13
5 3 2 4 5 6 3 3 6 2 1 7 6 6 7 8 10 7 7 7 9 10 7 8 9 9 9 8 9 7 6 8 11 18 22 20 24 31 34 34 31 27 27 35 39 37 37 35 30 27 25 24 23 22 21 20 19 17 15 14 14 13 13 12 10 9 8 9 10 10 9 8 9 8 8 8 7 7 7 7 8 9 9 9 9 8 8 8 10 9 9 9 9 10 12 13 14
2 2 3 4 5 6 3 3 7 3 3 6 3 3 8 9 10 7 6 7 10 13 11 11 12 10 9 8 10 8 7 8 9 14 18 21 27 29 30 31 25 19 17 20 25 26 30 32 30 29 26 25 24 23 22 21 20 19 17 16 16 15 14 12 11 10 10 11 11 10 9 8 8 8 7 7 6 6 6 7 9 10 10 10 10 9 9 10 12 12 11 11 11 13 14 16 16
2 2 1 4 4 4 5 4 4 1 3 4 5 5 9 11 11 7 6 9 11 14 15 15 15 13 10 11 11 9 9 9 8 10 14 20 26 24 23 24 21 17 14 13 15 18 25 29 28 28 27 26 25 24 23 21 20 20 18 17 16 15 14 12 11 11 12 12 11 9 8 8 7 7 6 6 6 5 5 7 9 10 10 10 10 11 10 11 14 14 13 12 13 14 14 16 16
2 3 2 4 2 1 4 5 4 3 2 5 6 6 8 9 8 6 6 8 9 12 14 11 11 12 11 12 12 12 11 11 10 10 11 15 18 17 18 19 18 16 15 16 17 18 22 26 27 27 27 27 26 24 23 21 20 19 16 15 15 14 14 13 12 12 13 11 10 9 8 8 7 7 6 5 5 5 5 6 8 9 10 10 10 12 11 12 15 15 14 13 14 16 15 16 14
3 5 5 5 3 4 7 4 5 6 4 4 3 4 6 5 5 6 6 5 8 9 7 4 5 8 9 10 11 12 12 12 12 12 11 11 11 14 17 18 18 18 17 18 18 18 20 23 25 25 25 26 25 24 23 22 21 19 16 14 13 12 13 14 14 14 14 12 11 10 9 8 7 6 5 5 5 5 5 6 7 9 10 9 10 12 11 11 14 15 15 14 14 15 15 17 14
4 5 9 9 7 8 9 3 4 5 5 3 1 3 5 5 4 6 6 5 8 5 4 6 7 9 11 11 12 12 11 10 10 10 10 9 10 14 18 18 19 20 19 18 18 18 19 22 24 23 23 24 24 24 24 23 22 21 18 17 16 15 15 16 17 16 14 12 11 10 9 8 6 6 5 5 5 5 6 7 7 8 9 8 9 10 10 10 12 14 15 14 13 13 14 17 16
3 5 10 11 9 8 8 2 3 0 3 3 3 4 5 6 4 6 6 5 7 4 3 7 7 10 12 12 11 12 11 10 10 9 10 10 11 15 19 22 24 22 19 19 19 17 17 21 23 23 23 23 23 23 23 23 22 21 20 20 20 19 19 18 16 15 14 13 12 11 10 9 7 7 6 6 6 6 6 6 7 7 8 7 8 9 9 9 10 13 14 14 12 12 13 16 17
3 5 7 9 8 8 6 4 4 4 3 4 4 4 3 6 4 7 6 4 6 5 2 7 9 10 12 12 12 12 12 12 11 11 11 10 14 18 22 24 22 17 17 19 18 15 16 20 23 22 22 23 23 23 23 22 22 21 20 20 20 20 20 18 15 14 13 13 13 11 10 10 9 8 8 8 7 7 6 5 6 7 7 8 8 9 9 8 9 11 13 13 12 12 11 13 16
6 6 6 7 7 7 5 6 4 3 1 5 5 2 2 5 5 6 4 3 5 5 2 5 10 11 10 11 11 12 12 12 12 11 11 13 17 21 22 19 14 12 15 17 17 15 17 21 23 23 23 23 23 23 23 21 20 20 20 19 19 18 17 16 15 14 14 14 13 12 11 11 10 9 8 8 8 7 6 6 5 6 7 7 8 8 9 9 10 10 12 13 12 12 11 11 13
5 5 5 3 3 3 4 5 4 1 1 5 6 2 1 4 5 5 4 3 4 5 3 4 10 10 9 8 9 11 11 11 11 10 12 15 17 18 18 14 11 10 12 14 15 16 18 22 24 23 23 23 22 22 22 20 20 20 19 20 19 18 16 15 15 14 14 13 12 12 13 13 11 9 8 8 7 6 6 5 4 4 5 6 7 8 9 10 11 11 11 12 11 12 12 11 11
2 4 4 4 4 3 3 2 3 3 2 7 7 6 4 3 5 4 2 2 4 5 4 5 9 10 9 8 9 11 10 10 11 10 11 13 12 10 9 8 9 9 10 12 15 16 18 21 23 22 22 22 22 22 21 20 20 19 19 20 19 17 16 16 16 16 16 15 14 15 15 14 13 11 10 9 7 6 5 4 3 3 4 6 7 7 8 9 10 10 10 11 11 11 11 11 10
2 3 3 3 2 3 4 4 3 3 5 6 5 5 5 3 5 4 4 6 6 5 6 8 11 11 10 9 10 10 10 11 10 9 10 9 5 4 6 7 8 10 10 12 15 17 18 20 21 21 20 21 21 22 21 20 20 19 18 18 18 16 16 17 18 18 18 18 17 17 16 16 14 13 11 10 8 6 4 2 2 3 4 7 6 5 6 7 8 9 9 10 11 11 11 11 11
4 3 4 3 1 3 2 3 0 2 6 5 3 3 3 4 6 4 6 9 7 6 7 9 11 11 10 10 11 11 11 11 11 10 8 4 3 4 5 8 9 11 11 12 14 17 18 19 20 20 19 21 21 21 21 20 19 18 18 17 16 16 17 18 19 19 19 19 18 18 17 16 15 13 12 10 8 6 4 2 3 3 4 7 5 3 4 5 7 8 9 10 10 11 11 10 10
5 5 4 4 2 2 1 3 1 3 6 3 3 3 2 4 4 4 7 9 9 8 8 9 9 10 9 9 10 11 11 11 10 9 7 5 4 5 7 9 10 12 12 11 13 16 18 17 18 19 18 19 21 22 21 20 19 19 18 17 16 17 18 19 19 19 19 19 17 17 16 15 14 12 11 10 8 6 4 3 3 3 4 5 4 2 2 4 5 6 8 9 9 9 10 9 9
4 4 5 4 4 4 3 3 3 4 4 3 2 2 2 2 3 4 6 7 7 5 3 6 6 6 6 7 9 10 11 10 9 8 8 7 7 9 11 12 13 14 13 12 12 15 17 17 17 19 18 18 21 22 21 21 20 20 19 18 18 19 20 20 20 19 18 18 17 16 15 13 12 11 10 8 6 6 5 4 4 3 3 4 2 0 1 2 3 4 5 6 7 8 9 9 8
2 3 5 2 4 5 2 3 4 3 1 2 2 2 3 3 4 4 4 5 3 2 2 5 4 2 2 4 5 6 7 7 5 5 6 5 7 12 13 14 15 16 14 13 15 17 17 17 17 19 19 18 19 20 21 21 20 20 20 20 20 20 20 20 20 19 18 17 16 14 13 11 10 9 8 7 5 5 5 4 4 3 3 4 2 1 2 2 1 2 3 5 6 7 7 7 6
1 2 3 4 4 7 4 2 0 3 1 2 1 2 4 3 3 4 4 5 3 2 2 5 4 4 5 4 4 4 3 3 4 3 4 6 9 12 13 14 15 15 13 13 17 18 16 15 17 18 19 18 18 19 20 19 19 19 20 20 21 21 20 19 19 19 18 17 15 14 12 11 10 8 7 6 5 5 5 4 2 1 2 3 2 1 3 3 2 2 2 3 5 5 5 5 5
4 3 5 2 2 4 4 2 2 4 2 4 1 1 3 1 1 3 3 3 4 5 3 5 6 6 6 7 7 8 8 8 8 8 7 7 10 13 14 15 16 17 14 13 16 17 15 14 15 17 18 18 18 18 19 18 18 18 18 19 20 20 19 18 18 18 17 16 16 14 11 10 10 8 6 5 4 5 5 3 1 0 2 4 3 1 3 4 3 2 2 2 2 2 2 4 4
3 4 4 3 2 1 1 2 1 1 2 3 3 2 2 3 3 2 1 1 4 6 6 7 7 5 6 7 8 9 9 8 7 8 7 6 9 13 15 17 18 19 18 15 14 14 14 13 14 15 16 16 15 15 16 17 17 18 18 19 20 20 19 18 17 17 16 15 15 13 11 10 9 8 7 5 5 5 6 4 1 0 2 5 4 1 3 4 3 2 1 1 0 0 1 3 3
2 2 2 2 3 4 2 2 3 3 2 2 2 3 2 4 4 3 1 3 5 5 5 7 7 5 5 5 6 6 5 6 5 6 6 5 8 13 16 16 17 19 20 18 16 15 13 11 11 13 13 12 13 14 15 15 17 18 19 19 19 20 19 18 16 16 15 14 12 11 10 10 9 8 7 6 6 6 6 5 2 1 3 5 4 1 3 3 3 3 1 1 1 1 1 2 4
1 2 2 1 1 2 2 1 1 3 3 2 1 1 5 5 2 2 1 4 6 5 6 6 5 6 6 5 6 5 3 3 4 4 5 6 9 13 15 16 17 17 17 18 18 17 16 13 12 15 15 15 17 16 12 15 17 17 18 18 19 19 19 17 16 15 14 12 11 9 10 10 9 8 7 6 6 7 7 5 2 2 4 6 4 1 3 3 2 2 2 2 2 3 2 2 3
3 4 4 3 2 4 2 1 1 2 3 3 4 2 6 4 1 1 2 5 6 7 8 6 6 7 7 7 6 4 2 3 3 4 5 6 9 13 14 16 17 17 16 16 15 14 15 14 12 12 14 17 19 16 14 16 17 16 16 17 18 19 18 16 15 15 13 11 10 10 10 11 9 8 7 6 6 7 6 5 4 4 6 6 3 0 2 3 2 2 2 2 3 3 2 1 2
Wind_Direction
107 106 89 62 359 2 18 62 95 320 81 254 270 202 257 230 222 284 278 297 306 275 253 315 306 126 74 143 146 129 70 163 168 153 206 254 142 152 160 157 151 148 148 152 154 156 157 154 152 151 149 147 142 137 136 135 134 131 128 127 126 130 131 132 135 133 131 131 131 131 132 130 128 128 129 127 124 119 116 118 118 117 118 118 116 116 117 116 115 113 112 111 108 106 107 106 105
109 107 89 66 12 68 180 71 98 327 54 298 271 182 249 238 210 236 230 241 228 261 300 329 75 101 85 109 127 109 41 14 158 175 77 120 135 146 156 156 152 149 150 152 154 157 157 155 153 152 151 148 143 138 137 136 135 132 130 128 128 130 129 132 135 134 133 132 131 130 129 127 127 128 129 128 125 119 117 119 119 118 119 120 119 118 118 118 116 114 114 112 109 107 107 106 106
113 110 92 100 39 47 95 48 90 89 95 249 269 226 231 177 222 225 206 230 241 274 298 301 358 99 70 76 67 59 85 75 126 121 104 132 137 145 154 155 151 148 149 151 155 158 156 155 153 152 152 148 144 140 139 137 137 134 131 129 131 132 132 135 135 135 134 133 133 133 132 132 133 132 132 128 122 119 118 120 120 120 121 123 122 121 121 120 118 117 115 113 112 110 108 106 105
114 108 87 119 66 30 68 51 132 128 162 230 269 256 222 209 249 311 244 244 265 283 266 283 360 330 28 84 42 27 131 133 131 123 124 152 153 149 150 150 149 147 149 152 156 157 155 154 152 153 153 149 145 143 142 140 138 135 132 131 131 133 137 138 136 135 132 133 135 136 134 132 133 132 132 125 119 118 120 122 121 121 121 124 125 123 122 122 121 119 117 116 115 113 111 109 107
114 109 78 86 98 55 99 86 123 140 212 201 243 259 230 225 259 289 272 278 284 278 234 151 35 315 40 86 126 74 138 102 135 146 120 146 151 148 147 147 147 146 148 153 156 156 154 153 153 154 153 149 146 144 143 141 140 137 134 133 133 137 139 139 137 135 132 134 136 137 135 134 131 131 131 124 122 123 123 123 122 123 122 124 126 125 125 126 125 122 120 118 116 113 111 109 107
120 112 64 64 96 143 115 127 177 215 229 173 229 266 248 236 252 279 292 299 281 269 235 127 108 76 60 5 31 102 88 107 142 146 130 141 148 147 146 147 146 144 148 154 157 156 154 155 155 155 153 149 147 145 144 143 142 139 137 137 137 139 139 139 137 134 135 138 140 139 137 138 136 134 133 128 127 128 127 128 129 127 123 125 128 127 127 129 128 126 122 119 117 115 112 108 104
135 121 42 66 46 24 113 183 209 232 249 185 223 271 276 272 281 299 311 313 297 299 32 96 122 107 77 320 350 30 20 77 138 139 143 143 146 146 147 147 144 144 150 156 158 155 155 158 157 155 153 149 148 146 145 146 142 139 139 141 141 142 141 140 137 136 139 141 143 142 140 139 140 139 136 133 133 133 133 135 136 130 123 124 129 130 130 131 130 128 124 121 120 117 112 106 99
131 132 30 96 48 16 108 233 237 214 251 232 237 261 274 282 291 297 296 293 294 306 56 119 116 92 38 327 305 352 27 71 133 140 144 142 145 146 148 148 144 147 153 158 157 154 156 159 157 155 152 150 149 145 146 146 142 140 141 143 145 146 144 140 139 140 141 142 143 143 142 142 142 141 138 137 137 139 140 141 141 135 127 122 126 131 132 133 131 128 125 122 120 117 110 103 98
87 60 107 97 118 34 29 270 263 227 247 262 265 265 272 281 281 272 271 266 261 278 178 153 111 104 149 89 69 329 34 100 130 136 142 143 147 147 148 149 146 149 154 157 155 155 158 159 156 153 152 150 148 146 149 147 144 145 145 147 150 149 146 143 143 144 142 142 143 143 145 144 144 142 139 139 141 143 142 142 140 135 130 121 121 127 131 134 132 129 126 123 121 117 109 102 98
42 31 134 82 116 335 310 267 253 250 253 261 272 272 275 282 275 254 260 264 243 238 172 125 82 118 141 125 82 346 89 126 128 133 142 145 147 148 148 150 151 151 154 157 156 159 159 158 155 153 152 150 149 150 152 149 149 149 149 152 153 153 150 147 146 144 142 142 145 146 145 143 142 141 141 143 144 144 142 142 140 136 129 122 120 123 130 134 134 132 127 125 122 117 109 102 98
35 349 104 76 86 198 255 256 266 272 283 295 286 275 261 267 279 268 245 241 237 185 169 111 96 129 121 117 74 76 129 132 130 135 146 147 147 149 148 150 154 153 154 156 158 159 157 157 156 153 153 153 153 153 153 153 153 151 152 154 155 156 153 149 146 143 143 144 146 145 143 141 141 142 144 146 145 142 141 140 138 136 131 126 125 126 132 136 135 133 129 124 119 115 108 100 98
81 336 64 93 145 202 217 253 278 292 302 298 284 287 287 284 296 293 267 232 218 145 183 167 145 149 109 116 94 111 126 129 135 140 147 148 148 150 149 151 155 155 154 157 160 158 157 159 156 155 156 156 156 155 156 156 155 153 153 154 154 154 151 150 148 145 144 145 147 145 144 143 142 144 145 145 141 138 137 134 131 130 128 126 125 126 133 139 139 136 132 125 118 114 107 100 100
120 144 84 122 189 193 200 236 279 314 313 266 254 297 331 323 315 302 288 219 166 142 204 179 155 142 103 124 110 127 126 131 139 143 148 148 149 150 150 152 154 155 154 158 159 158 161 160 158 159 159 158 157 157 158 158 155 153 155 155 152 150 148 150 149 147 148 148 150 149 146 144 143 143 143 141 137 136 134 131 129 127 125 123 122 122 130 140 144 143 139 133 124 116 109 103 103
142 150 111 149 212 187 192 232 287 306 284 261 251 314 330 329 318 318 48 89 151 167 180 150 144 111 99 132 126 158 143 142 144 145 148 148 151 151 151 151 153 155 155 159 159 161 164 162 161 161 160 160 158 158 158 157 155 154 156 155 152 149 148 149 149 150 151 151 151 150 145 141 139 139 137 135 132 134 136 134 130 126 126 125 123 122 127 139 148 151 149 144 135 122 113 108 107
151 131 95 125 265 273 218 200 229 187 254 273 241 326 337 328 324 2 61 81 283 249 121 127 125 91 155 172 166 179 151 146 147 146 147 146 151 151 151 150 152 156 158 160 162 165 165 164 163 160 161 162 160 159 157 156 155 157 157 156 154 150 148 150 151 153 153 152 152 149 143 139 136 134 132 130 130 131 136 136 128 122 124 126 127 125 127 138 149 156 157 154 146 131 120 114 112
132 104 76 103 239 240 222 191 179 202 260 266 266 350 350 327 345 40 344 86 153 338 61 126 332 68 173 184 153 151 146 146 147 146 144 143 150 152 152 151 153 158 160 163 165 167 166 165 163 161 163 163 162 159 156 157 157 158 157 156 155 149 149 152 152 154 155 152 150 146 142 141 137 134 132 130 131 131 134 132 126 122 121 124 126 128 129 135 145 155 159 158 152 140 127 118 116
74 81 78 67 222 201 206 190 177 211 268 281 322 7 358 324 338 94 8 38 93 19 25 58 343 356 162 143 134 141 144 145 146 143 142 145 152 154 154 154 155 158 162 165 166 166 166 165 163 161 164 165 163 160 158 157 156 159 158 156 153 151 152 152 153 155 155 153 149 148 148 144 137 134 132 132 133 132 131 128 127 128 127 129 130 130 130 130 137 149 158 160 156 150 138 124 120
67 93 118 214 210 196 189 187 195 219 302 305 324 360 356 323 330 328 47 28 7 24 35 49 34 44 86 118 130 138 143 143 145 144 145 152 157 159 160 159 158 160 163 166 167 168 165 163 162 161 164 166 163 160 159 156 159 160 157 155 153 152 151 151 153 153 154 155 153 153 153 147 140 136 134 135 135 133 132 132 132 130 129 131 130 127 127 128 130 138 152 160 160 158 148 130 124
111 113 154 229 201 207 196 188 238 275 291 301 313 351 353 308 306 317 121 15 335 18 63 88 80 84 98 118 130 140 144 144 148 149 152 159 164 166 164 161 162 162 164 166 168 169 165 160 162 163 165 166 164 162 159 158 161 161 157 156 154 152 151 153 153 153 156 158 157 156 155 149 143 137 135 135 135 135 135 135 133 128 129 129 127 124 124 127 126 128 140 153 158 160 153 134 127
171 119 203 242 200 222 235 220 252 260 273 302 308 334 345 300 278 300 185 146 308 245 179 132 130 133 129 132 139 145 147 149 153 156 161 168 172 172 166 164 164 165 166 165 166 169 166 162 165 167 168 168 167 165 161 161 163 161 160 158 157 156 156 158 155 155 158 158 157 157 154 148 142 136 134 137 138 139 137 135 134 132 131 127 124 124 124 128 128 127 129 141 152 158 152 135 132
184 156 208 231 168 229 266 251 253 265 275 284 298 327 325 297 290 50 135 146 249 238 221 198 166 150 145 146 148 151 151 153 159 165 170 172 175 172 165 164 165 166 165 163 166 171 168 166 169 170 170 171 170 168 164 164 165 163 163 163 162 162 162 161 158 159 160 157 156 156 153 148 146 142 142 146 145 141 138 137 136 133 130 124 125 129 129 129 127 125 122 129 142 150 148 135 137
170 240 233 235 234 276 278 272 267 268 289 294 300 319 303 302 322 208 156 192 237 228 212 204 172 154 152 151 152 154 152 158 167 172 175 177 177 168 160 162 166 168 165 165 168 171 171 170 171 170 172 175 174 171 167 165 167 165 165 168 166 166 167 162 161 164 161 158 154 152 152 151 151 147 149 153 146 139 137 136 133 129 128 125 130 137 136 132 125 121 118 122 129 136 140 135 139
212 265 265 255 249 257 273 278 281 282 318 298 288 303 297 325 313 258 184 217 248 258 173 153 159 158 151 149 154 157 159 168 173 176 178 171 160 152 160 165 168 169 167 168 167 167 172 175 174 173 175 177 176 171 168 166 168 168 167 171 170 169 168 164 164 162 157 154 150 150 153 155 155 151 153 153 145 140 139 136 133 130 129 130 134 143 145 139 129 121 116 115 116 120 131 138 143
222 262 306 268 235 226 250 261 279 289 275 266 280 330 300 289 294 275 201 235 261 14 116 135 144 150 148 152 159 160 163 168 173 179 174 155 144 146 158 167 171 171 168 168 169 169 174 181 179 178 180 178 175 170 167 167 168 170 169 172 173 170 167 165 163 156 152 153 152 154 157 160 158 154 154 153 149 146 142 138 135 132 130 133 139 148 153 149 140 129 120 112 108 109 124 143 148
229 247 288 269 245 235 254 268 279 282 262 260 294 293 276 241 232 244 239 253 271 97 115 134 141 148 155 159 161 159 163 167 178 179 161 154 165 163 153 164 181 178 173 169 172 174 177 185 183 180 183 179 174 169 167 168 169 171 172 174 173 169 165 163 161 156 155 156 157 160 163 165 161 158 158 156 155 148 142 136 132 130 129 137 142 148 156 162 161 144 131 117 106 98 107 138 149
228 224 250 255 269 270 275 276 271 278 270 266 301 280 283 241 194 258 264 251 128 127 124 139 146 155 162 161 163 162 171 177 183 175 156 167 176 168 161 168 189 191 182 172 174 177 179 185 186 183 182 178 173 169 168 169 171 174 175 176 173 167 163 160 161 162 161 160 161 163 167 169 165 168 165 160 160 150 144 138 131 126 121 135 147 149 154 167 175 159 146 129 108 95 95 127 146
220 211 251 250 267 280 269 268 271 287 283 237 250 272 288 228 172 265 270 143 140 133 130 151 153 161 166 162 165 167 181 186 182 166 155 174 179 177 173 170 182 195 187 178 178 181 182 186 187 186 181 175 174 171 170 171 175 178 178 177 172 165 162 161 164 166 166 165 165 167 170 174 174 176 173 167 165 156 152 147 137 129 115 125 152 160 159 166 173 162 151 137 116 102 97 117 144
262 259 288 276 287 293 247 255 269 283 282 223 196 263 301 44 191 240 226 144 149 141 145 161 158 165 165 162 170 174 190 188 181 171 170 189 185 183 184 176 177 187 190 187 184 184 188 189 187 186 179 175 176 173 172 175 178 180 180 178 170 165 164 163 167 170 169 169 171 172 175 183 182 178 176 171 167 160 161 160 147 139 137 136 149 161 165 164 166 158 148 139 126 117 110 120 140
288 275 298 296 337 325 262 254 261 185 253 211 149 287 311 252 221 250 200 141 147 144 154 165 159 164 160 164 175 181 194 186 187 189 189 195 190 183 184 180 175 180 190 189 186 188 190 189 186 184 179 177 179 176 175 178 179 180 181 178 168 166 167 168 171 171 170 170 171 172 180 190 186 181 178 176 176 175 177 176 168 166 173 173 160 159 164 162 160 153 146 140 134 130 127 132 144
296 288 171 310 356 328 284 292 335 146 238 192 145 278 292 261 258 269 199 146 143 148 164 172 162 159 162 170 178 188 195 191 197 199 197 199 197 187 183 183 180 182 188 186 185 189 189 188 184 181 180 181 181 179 179 179 180 181 182 177 171 172 174 176 176 171 170 170 168 171 179 186 185 187 191 193 193 196 201 191 185 180 178 182 179 166 159 155 152 151 149 144 140 140 140 146 156
316 298 249 353 17 287 301 306 360 342 270 152 141 234 268 275 286 250 193 158 154 162 173 178 173 169 170 177 186 197 200 203 207 201 192 162 113 137 146 157 174 177 181 183 185 186 187 187 182 179 183 183 183 184 182 181 183 183 182 179 175 179 183 184 180 172 172 172 173 177 175 175 180 193 201 202 204 208 213 204 190 179 178 183 183 176 157 148 147 146 147 146 143 146 150 153 161
17 310 295 346 142 264 309 310 80 288 289 70 113 226 270 278 289 219 191 170 167 170 176 183 183 182 177 185 193 203 209 207 211 177 77 70 81 96 89 58 58 70 91 168 188 189 190 188 182 182 186 185 184 187 186 184 186 185 185 183 182 188 189 187 182 176 177 174 173 175 172 168 174 192 200 199 203 205 203 204 196 183 180 182 187 183 161 149 150 146 144 151 152 152 159 160 160
360 52 265 298 278 282 318 313 333 302 285 10 53 236 286 282 292 281 202 184 179 178 185 189 188 188 184 191 197 203 210 188 139 87 83 85 92 110 133 115 96 133 157 197 210 196 192 191 189 189 189 189 188 189 189 188 190 189 188 187 188 193 192 188 185 182 182 173 169 170 172 176 183 197 200 197 201 203 199 199 201 191 182 184 191 189 174 159 155 153 147 156 165 162 167 164 154
320 12 265 267 260 264 313 296 318 19 48 5 353 235 256 272 291 322 208 192 183 188 197 196 192 191 189 196 202 205 198 123 104 108 104 109 117 130 157 174 186 196 192 198 210 203 195 192 195 194 193 194 192 191 191 192 192 192 192 191 192 194 193 193 188 186 183 171 165 167 172 179 188 196 199 201 197 200 202 198 205 201 188 190 195 191 186 173 163 163 157 160 175 172 171 163 148
203 237 125 287 283 236 224 251 300 6 21 348 338 300 256 270 285 273 218 200 191 202 202 200 198 194 192 197 202 200 161 124 125 126 120 128 140 149 163 172 178 196 205 202 200 199 196 193 194 194 194 196 195 192 192 194 193 191 191 192 193 195 197 196 189 188 183 165 156 160 166 172 181 188 193 198 190 190 197 196 203 202 194 194 194 193 189 179 171 171 171 173 177 169 165 157 147
161 175 164 223 280 262 216 222 271 337 353 314 295 274 263 275 285 269 228 209 204 215 206 200 203 196 195 197 197 183 143 144 139 133 131 140 156 161 169 177 177 178 194 202 197 193 191 190 189 189 193 196 195 193 192 192 190 188 190 188 188 192 197 195 188 187 174 156 152 154 162 169 175 178 182 187 185 188 193 196 197 191 192 190 192 201 195 184 177 176 184 185 178 162 148 147 148
142 167 205 226 252 273 237 223 259 213 279 282 261 257 270 274 279 261 220 207 212 219 210 206 206 197 195 184 176 162 142 153 145 142 144 155 174 173 176 188 190 185 194 198 193 190 185 182 182 183 189 192 192 191 190 190 188 185 186 183 183 187 192 189 184 181 165 155 156 156 162 167 170 172 176 181 184 192 194 196 196 188 190 190 193 204 200 192 180 177 187 187 182 164 146 143 147
139 201 276 275 246 265 276 242 257 198 166 260 274 309 287 273 274 263 199 188 215 217 206 208 206 198 192 173 160 149 147 155 147 152 159 172 187 186 185 191 199 210 213 199 192 187 178 176 178 180 185 187 189 190 187 188 190 190 186 182 182 183 183 182 177 172 163 160 161 162 166 168 169 172 176 184 188 197 202 203 198 192 192 191 195 199 198 192 178 175 185 185 180 173 159 152 151
140 139 248 276 257 284 297 278 284 122 149 259 304 320 286 277 276 260 196 189 216 216 205 205 202 192 184 170 161 153 156 160 158 161 169 185 194 192 191 193 198 210 211 200 195 186 175 175 177 177 181 184 186 187 186 186 189 192 190 185 182 178 175 175 172 168 164 165 167 168 173 171 171 175 179 189 193 200 210 209 201 197 198 197 197 195 192 186 176 175 186 189 180 172 166 161 161
154 159 195 264 266 356 289 295 327 319 239 251 283 305 280 282 295 281 232 215 233 231 215 208 198 188 178 170 167 166 164 161 164 166 173 195 199 191 193 198 203 204 197 194 192 182 174 174 176 177 179 181 183 185 187 186 185 187 189 186 179 172 171 170 167 166 165 167 171 172 173 172 171 176 182 189 194 202 204 201 201 199 200 204 201 196 192 184 178 178 186 194 186 173 168 169 172
249 205 207 245 244 210 236 281 338 323 307 240 248 330 297 293 320 299 285 267 260 246 216 186 166 162 155 158 169 175 172 163 164 167 176 197 198 192 200 204 204 201 195 192 187 179 173 173 178 179 176 179 182 184 186 184 181 180 178 172 168 165 167 170 169 167 168 168 170 170 168 169 170 173 180 185 190 199 193 191 198 197 198 204 200 197 197 187 183 185 187 192 193 185 177 176 179
296 235 212 222 223 227 242 280 15 356 334 288 89 28 297 305 319 286 309 316 285 267 182 166 151 143 146 159 172 175 172 165 162 167 177 189 190 196 206 208 206 203 194 188 183 177 174 174 178 178 175 178 182 185 187 185 182 180 172 163 163 165 166 172 172 167 166 165 162 162 161 161 163 163 167 173 176 181 181 182 188 194 198 200 194 196 203 196 188 191 191 192 198 200 191 183 184
302 244 204 208 212 229 246 217 97 166 266 293 59 103 268 311 324 289 308 317 304 320 163 172 152 148 159 167 174 169 166 162 160 173 183 183 187 199 209 210 207 202 191 182 179 177 174 172 175 178 178 180 184 186 186 186 183 181 176 170 169 169 168 171 171 165 162 158 153 153 153 151 150 149 150 157 161 161 165 170 177 188 194 192 187 194 204 204 197 196 195 195 199 206 202 192 190
256 237 178 180 199 219 223 155 160 231 262 319 19 120 239 296 291 286 306 335 339 355 164 176 162 161 165 169 173 168 166 164 165 179 184 185 196 203 208 209 204 194 183 176 171 171 171 170 174 179 181 184 187 186 185 186 183 178 176 174 172 172 170 168 168 167 162 156 153 152 149 148 146 145 144 144 146 145 146 152 166 178 185 186 188 194 204 209 206 203 199 199 203 208 211 203 198
241 219 166 168 183 194 180 150 184 243 348 313 304 135 206 276 277 301 339 20 349 344 313 198 178 171 166 166 167 164 165 167 171 179 182 193 204 205 207 206 194 182 180 173 164 163 165 168 175 180 183 187 189 187 185 184 183 179 177 175 172 172 172 170 170 170 165 160 159 158 158 157 153 152 150 147 144 141 139 144 156 168 175 182 187 193 203 209 209 211 205 203 207 210 214 215 210
227 165 138 111 112 130 132 143 163 86 56 258 259 194 197 273 288 313 5 30 326 315 309 221 189 178 170 162 155 159 165 167 176 183 190 203 207 204 203 196 176 172 175 167 159 157 159 166 175 179 183 187 187 187 185 184 184 183 181 177 173 172 172 172 171 168 166 164 162 164 167 166 165 163 160 157 152 145 144 147 155 165 169 177 183 191 200 204 208 217 215 210 214 213 213 218 219
155 107 91 59 46 58 72 100 103 86 272 252 232 200 189 265 286 276 266 307 289 285 282 225 195 182 176 167 153 158 166 171 179 187 201 211 208 197 192 172 154 159 166 163 158 156 160 167 172 175 182 187 187 186 187 187 186 186 184 179 176 175 174 170 166 162 162 163 160 161 165 168 170 170 167 164 157 150 151 155 171 189 185 181 182 190 198 204 208 214 216 215 218 218 219 220 220
111 82 86 84 320 23 40 355 49 108 257 261 228 190 163 209 261 257 265 284 273 252 245 224 203 185 176 175 164 161 173 178 179 188 204 206 184 152 148 139 142 153 160 161 158 159 162 165 170 174 180 186 187 188 191 191 187 186 186 182 181 182 179 173 166 161 162 161 158 158 162 166 169 172 172 168 161 159 162 173 207 226 203 189 183 192 204 212 217 217 217 217 219 223 225 224 222
124 125 100 99 306 20 31 300 38 194 254 252 198 164 154 220 245 257 290 298 283 250 236 226 213 195 180 179 173 169 178 181 181 189 194 171 102 95 123 129 132 141 150 155 156 160 159 163 171 173 177 185 187 188 191 190 188 188 186 184 186 186 183 178 170 165 164 164 161 160 163 165 169 173 174 173 168 165 167 185 224 226 190 183 179 195 219 227 228 226 225 222 221 224 226 227 227
148 157 146 137 138 85 265 270 266 254 268 255 191 181 227 268 260 271 299 303 291 268 236 216 214 205 189 181 175 175 184 187 187 181 159 134 134 136 129 124 122 127 138 146 150 156 160 163 169 172 175 182 184 185 188 189 188 189 188 187 189 189 186 181 175 170 169 169 166 164 165 166 168 169 170 173 171 170 171 180 207 197 168 168 166 180 232 243 232 226 226 226 224 225 227 231 232
168 164 140 144 158 151 199 222 206 247 272 304 289 199 180 229 261 282 301 305 301 294 224 181 200 216 195 176 176 181 189 191 185 168 157 161 155 137 129 125 123 124 129 140 148 154 161 164 168 175 179 180 181 182 183 187 187 186 188 190 191 192 189 182 177 177 177 176 172 169 167 167 166 163 165 169 171 174 175 171 179 182 175 175 173 188 283 270 235 215 216 221 221 221 226 232 230
209 143 111 161 188 154 155 190 176 186 242 325 313 239 206 221 264 290 318 320 325 11 88 140 162 204 155 154 189 202 203 203 195 161 148 141 117 113 119 124 128 128 128 140 149 152 158 163 169 177 179 179 182 181 182 185 185 184 187 188 190 191 189 183 179 181 184 183 179 173 170 169 165 160 161 165 166 169 173 173 173 175 185 187 180 329 331 312 253 222 209 210 214 217 223 228 228
187 133 170 219 174 128 119 196 115 82 141 278 297 259 294 320 295 295 334 341 353 43 110 137 109 59 64 60 22 355 349 351 355 34 91 95 92 95 104 114 125 129 125 129 144 153 159 163 167 173 177 180 181 181 180 180 179 181 183 185 188 190 188 186 183 183 185 184 181 176 170 169 167 161 158 160 159 166 172 178 180 172 186 185 174 22 356 335 285 267 230 208 210 214 220 220 219
127 181 210 195 88 91 112 161 7 46 207 269 332 271 293 339 283 302 340 344 356 17 56 99 79 70 78 71 60 54 54 48 37 43 52 60 74 81 90 102 116 129 129 119 129 149 164 168 169 173 176 178 181 181 175 172 172 174 177 182 186 189 190 189 186 185 184 182 181 178 175 173 171 166 161 159 162 175 182 187 204 288 195 183 169 65 6 343 320 301 269 235 207 197 214 211 203
140 178 174 110 122 207 89 144 153 113 218 281 326 310 259 202 225 287 347 348 3 9 27 55 59 71 78 67 65 68 76 77 69 72 68 58 76 89 97 102 110 123 130 125 123 137 156 169 174 175 174 174 175 169 158 157 165 172 177 182 185 187 187 186 185 183 180 181 182 180 179 181 178 172 168 166 170 182 193 196 203 282 185 180 170 77 3 352 360 351 278 251 87 118 223 214 202
34 126 114 57 138 167 164 150 162 162 175 244 314 331 272 227 219 209 242 348 18 20 31 46 41 33 39 55 61 56 76 98 96 101 104 98 98 102 107 110 110 113 119 124 127 129 139 149 142 132 131 129 117 109 123 147 167 175 179 181 181 182 183 182 183 181 177 178 182 181 183 188 185 177 173 172 173 183 193 192 183 180 180 179 172 107 354 354 21 29 52 70 42 18 291 239 231
107 140 182 300 80 134 154 94 92 124 145 180 177 288 267 249 227 225 302 9 29 54 68 62 51 38 26 45 66 46 35 86 96 100 100 100 100 99 104 111 115 114 114 118 119 120 127 131 120 112 113 116 108 106 137 169 174 176 177 176 176 178 179 181 183 181 177 177 179 180 185 188 183 176 176 178 176 181 187 183 170 170 179 178 169 101 349 356 21 31 48 42 13 3 342 263 244
170 168 180 181 135 123 137 263 300 102 126 169 161 208 268 267 255 327 35 46 48 72 88 76 64 68 52 39 60 74 53 61 84 87 84 95 101 102 107 113 118 120 121 122 123 126 133 136 136 135 138 140 135 137 164 175 170 172 175 174 175 177 179 182 182 180 179 177 174 175 179 180 176 175 180 179 173 174 177 177 171 166 168 168 162 334 335 359 12 8 25 22 7 353 334 250 202